Regional Weather Roundup
Issued by NWS Jackson, KY

Home | Current Version | Previous Version | Text Only | Print | Product List | Glossary Off
Versions: 1 2 3 4 5 6 7 8 9 10 11 12 13 14 15 16 17 18 19 20 21 22 23 24 25 26 27 28 29 30 31 32 33 34 35 36 37 38 39 40 41 42 43 44 45 46 47 48 49 50

000
ASUS43 KJKL 271010
RWRJKL

EAST KENTUCKY HOURLY WEATHER ROUNDUP
NATIONAL WEATHER SERVICE JACKSON KY
600 AM EDT WED JUL 27 2016

NOTE: "FAIR" INDICATES FEW OR NO CLOUDS BELOW 12,000 FEET WITH
NO SIGNIFICANT WEATHER AND/OR OBSTRUCTIONS TO VISIBILITY.

* THESE REPORTS ARE NOT UNDER NWS QUALITY CONTROL AND MAY NOT
  REPORT WEATHER SUCH AS PRECIPITATION AND FOG.

KYZ079-080-083-085-087-088-110-112-115-119-120-271100
...EASTERN KENTUCKY...

CITY           SKY/WX    TMP DP  RH WIND       PRES   REMARKS
JACKSON        CLEAR     74  71  91 CALM      30.03R
LONDON         CLOUDY    74  71  91 CALM      30.03R
SOMERSET*      MOCLDY    73  73 100 CALM      30.03R
MONTICELLO*    CLOUDY   N/A N/A N/A W8        30.03S
WILLIAMSBURG*  CLOUDY    72  72 100 CALM      30.03R
MIDDLESBORO*   CLOUDY    73  72  98 CALM      30.05R
HARLAN APT*    CLOUDY    72  70  94 CALM      30.06S
PIKE CO APT*   CLOUDY    73  73 100 CALM      30.04R
BIG SANDY APT* FOG       70  70 100 CALM      30.03R VSB 3/4
MOREHEAD APT*  PTSUNNY   70  70 100 CALM      30.03S FOG
ASHLAND*       CLOUDY    72  70  94 CALM      29.99S
$$

KYZ035-036-041-042-044-050-067-078-099-271100
...CENTRAL KENTUCKY...

CITY           SKY/WX    TMP DP  RH WIND       PRES   REMARKS
MT STERLING*   MOCLDY    72  72 100 CALM      30.02F
FLEMING/MASON* FOG       70  70 100 CALM      30.02S VSB 1/4
DANVILLE*      PTCLDY    72  72 100 CALM      30.03R
LEXINGTON      PTCLDY    73  70  90 CALM      30.01R
FRANKFORT      PTCLDY    73  70  90 CALM      29.99S
LOUISVILLE     MOCLDY    76  71  85 N5        29.98S
LEBANON*         N/A     73  73 100 CALM      30.01R
GLASGOW*       MOCLDY    75  75 100 CALM      30.00R
BOWLING GREEN  PTCLDY    78  75  90 CALM      29.98R FOG
$$

KYZ091>093-OHZ055-061-077-WVZ005-015-034-035-042-271100
...SOUTHERN OHIO/WEST VIRGINIA...

CITY           SKY/WX    TMP DP  RH WIND       PRES   REMARKS
COVINGTON      MOCLDY    73  73 100 CALM      30.01R FOG
COLUMBUS       CLOUDY    74  63  68 NE5       30.00R
DAYTON         MOCLDY    71  68  90 S3        30.02R
WILMINGTON     CLOUDY    72  72 100 CALM      30.01S FOG
HUNTINGTON     FOG       72  71  97 CALM      30.01R VSB 1/2
CHARLESTON     FOG       72  70  93 CALM      30.02R VSB 1/8
PINEVILLE*     CLOUDY    70  67  90 MISG      30.11R FOG
BECKLEY          N/A     67  65  93 CALM      30.10R
BLUEFIELD        N/A     70  68  93 W5        30.13R
LOGAN CO APT*  PTSUNNY   72  72 100 CALM      30.04R
$$

VAZ002-007-008-TNZ017-027-036-066-071-271100
...SOUTHWEST VIRGINIA/EAST TENNESSEE...

CITY           SKY/WX    TMP DP  RH WIND       PRES   REMARKS
WISE*          MOCLDY    70  68  94 S5        30.14R
JONESVILLE*    CLOUDY    73  72  94 CALM      30.08R
ABINGDON*        N/A     71  70  98 CALM      30.10R
BRISTOL        TSTM      73  71  93 W9        30.07R VSB 3/4
MORRISTOWN*    CLOUDY    77  73  88 CALM      30.05R
SEVIERVILLE*   SUNNY     72  70  94 SW3       30.03R
KNOXVILLE      PTCLDY    75  71  87 SW5       30.02R
OAK RIDGE      CLEAR     78  71  79 CALM      30.04R
CROSSVILLE     CLEAR     73  69  87 SW5       30.08R
NASHVILLE      PTCLDY    75  72  90 CALM      30.00R
$$

...KEY TO REMARKS...
VSB - VISIBILITY IN MILES
WCI - WIND CHILL INDEX
HX  - HEAT INDEX

$$



USA.gov is the U.S. government's official web portal to all federal, state and local government web resources and services.